MLM583 MMUN-MKJS

Flight info

Callsign MLM583
Flight time 1h 16m
Altitude 41000
Route HECA2A/12R HECAT UJ52 ILUBA UL577 MAMBI UR640 FROST G633 PETSI LENAR7
Aircraft A359/H-SDE2E3GHIJ3J4J5LM1ORWXY/LB1D1

Departure

Time 2026-04-30 18:58
Airport Cancún International Airport (MMUN)

Arrival

Time 2026-04-30 20:14
Airport Sangster International Airport (MKJS)
Time Latitude Longitude Altitude Speed Heading
2026-04-30 18:32 21.03542 -86.86910 29 ft 0 kts 28°
2026-04-30 18:49 21.03526 -86.86919 31 ft 4 kts 26°
2026-04-30 18:49 21.03501 -86.86931 31 ft 4 kts 17°
2026-04-30 18:50 21.03475 -86.86937 30 ft 4 kts 355°
2026-04-30 18:50 21.03455 -86.86929 30 ft 2 kts 305°
2026-04-30 18:50 21.03455 -86.86928 30 ft 0 kts 304°
2026-04-30 18:53 21.03475 -86.86958 25 ft 9 kts 306°
2026-04-30 18:53 21.03515 -86.87022 30 ft 11 kts 304°
2026-04-30 18:53 21.03538 -86.87099 28 ft 11 kts 251°
2026-04-30 18:53 21.03529 -86.87181 26 ft 12 kts 292°
2026-04-30 18:54 21.03577 -86.87262 27 ft 14 kts 304°
2026-04-30 18:54 21.03635 -86.87354 27 ft 16 kts 304°
2026-04-30 18:54 21.03699 -86.87457 28 ft 18 kts 303°
2026-04-30 18:54 21.03771 -86.87573 28 ft 20 kts 303°
2026-04-30 18:55 21.03850 -86.87701 28 ft 22 kts 304°
2026-04-30 18:55 21.04069 -86.88047 28 ft 29 kts 304°
2026-04-30 18:55 21.04183 -86.88228 29 ft 30 kts 303°
2026-04-30 18:56 21.04414 -86.88596 31 ft 30 kts 304°
2026-04-30 18:56 21.04532 -86.88785 31 ft 31 kts 303°
2026-04-30 18:56 21.04602 -86.88899 31 ft 21 kts 303°
2026-04-30 18:57 21.04484 -86.89018 30 ft 17 kts 126°
2026-04-30 18:57 21.04316 -86.88750 32 ft 79 kts 124°
2026-04-30 18:57 21.03881 -86.88056 28 ft 144 kts 123°
2026-04-30 18:58 21.02657 -86.86088 1218 ft 161 kts 126°
2026-04-30 18:58 21.01996 -86.84977 1609 ft 194 kts 124°
2026-04-30 18:58 21.01520 -86.84090 1951 ft 210 kts 118°
2026-04-30 18:59 21.00101 -86.81026 3152 ft 242 kts 118°
2026-04-30 19:00 20.97582 -86.76090 5411 ft 262 kts 121°
2026-04-30 19:00 20.96672 -86.74368 6129 ft 269 kts 121°
2026-04-30 19:00 20.94652 -86.70969 7740 ft 272 kts 125°
2026-04-30 19:01 20.92432 -86.67608 9295 ft 279 kts 124°
2026-04-30 19:01 20.91302 -86.65900 10052 ft 284 kts 123°
2026-04-30 19:02 20.88899 -86.62259 10767 ft 321 kts 123°
2026-04-30 19:02 20.86206 -86.58188 11606 ft 346 kts 123°
2026-04-30 19:03 20.83378 -86.53920 12829 ft 357 kts 123°
2026-04-30 19:03 20.80462 -86.49520 14083 ft 368 kts 123°
2026-04-30 19:04 20.77472 -86.45011 15252 ft 376 kts 123°
2026-04-30 19:04 20.74424 -86.40417 16469 ft 383 kts 123°
2026-04-30 19:05 20.71308 -86.35727 17592 ft 391 kts 123°
2026-04-30 19:05 20.68351 -86.30785 18629 ft 398 kts 114°
2026-04-30 19:06 20.66091 -86.25342 19642 ft 403 kts 112°
2026-04-30 19:06 20.64973 -86.22591 19878 ft 405 kts 112°
2026-04-30 19:06 20.62714 -86.17064 19925 ft 407 kts 112°
2026-04-30 19:07 20.60438 -86.11515 19924 ft 408 kts 112°
2026-04-30 19:07 20.59297 -86.08738 19923 ft 408 kts 112°
2026-04-30 19:08 20.57014 -86.03194 19920 ft 408 kts 112°
2026-04-30 19:08 20.54392 -85.97806 19924 ft 410 kts 118°
2026-04-30 19:08 20.52952 -85.95183 19920 ft 410 kts 119°
2026-04-30 19:09 20.50014 -85.89974 19920 ft 410 kts 120°
2026-04-30 19:09 20.48547 -85.87369 19928 ft 410 kts 120°
2026-04-30 19:09 20.47088 -85.84764 19920 ft 409 kts 119°
2026-04-30 19:10 20.44186 -85.79544 19920 ft 410 kts 119°
2026-04-30 19:10 20.41289 -85.74317 19923 ft 409 kts 118°
2026-04-30 19:11 20.39843 -85.71707 19920 ft 408 kts 119°
2026-04-30 19:11 20.36973 -85.66536 19923 ft 408 kts 118°
2026-04-30 19:11 20.35533 -85.63941 19923 ft 407 kts 119°
2026-04-30 19:12 20.34092 -85.61347 19914 ft 407 kts 119°
2026-04-30 19:12 20.32648 -85.58750 19914 ft 407 kts 118°
2026-04-30 19:12 20.31202 -85.56150 19951 ft 408 kts 119°
2026-04-30 19:13 20.28286 -85.50907 20876 ft 414 kts 119°
2026-04-30 19:13 20.25322 -85.45583 21977 ft 421 kts 119°
2026-04-30 19:13 20.23821 -85.42890 22519 ft 425 kts 119°
2026-04-30 19:14 20.22303 -85.40167 23052 ft 429 kts 119°
2026-04-30 19:14 20.20778 -85.37419 23578 ft 433 kts 118°
2026-04-30 19:14 20.19436 -85.34541 23996 ft 436 kts 111°
2026-04-30 19:14 20.18443 -85.31486 24477 ft 438 kts 104°
2026-04-30 19:15 20.17648 -85.28351 24977 ft 440 kts 102°
2026-04-30 19:15 20.16249 -85.21960 25981 ft 446 kts 100°
2026-04-30 19:15 20.15576 -85.18722 26479 ft 450 kts 100°
2026-04-30 19:16 20.14898 -85.15463 26971 ft 454 kts 100°
2026-04-30 19:16 20.14207 -85.12176 27458 ft 457 kts 100°
2026-04-30 19:16 20.12786 -85.05525 28424 ft 464 kts 100°
2026-04-30 19:17 20.12062 -85.02165 28876 ft 468 kts 101°
2026-04-30 19:17 20.10586 -84.95355 29779 ft 476 kts 101°
2026-04-30 19:17 20.09840 -84.91918 30185 ft 479 kts 100°
2026-04-30 19:18 20.08587 -84.86149 30827 ft 484 kts 100°
2026-04-30 19:18 20.07570 -84.81472 31345 ft 487 kts 99°
2026-04-30 19:18 20.06805 -84.77954 31722 ft 489 kts 99°
2026-04-30 19:19 20.06035 -84.74419 32099 ft 492 kts 99°
2026-04-30 19:19 20.05261 -84.70866 32476 ft 494 kts 99°
2026-04-30 19:19 20.03701 -84.63721 33165 ft 499 kts 99°
2026-04-30 19:20 20.02915 -84.60124 33468 ft 502 kts 99°
2026-04-30 19:20 20.02120 -84.56495 33795 ft 504 kts 99°
2026-04-30 19:20 20.00532 -84.49253 34328 ft 508 kts 99°
2026-04-30 19:21 19.99728 -84.45599 34687 ft 507 kts 99°
2026-04-30 19:21 19.98127 -84.38334 35515 ft 503 kts 99°
2026-04-30 19:22 19.96537 -84.31131 36245 ft 500 kts 99°
2026-04-30 19:22 19.94153 -84.20340 37255 ft 498 kts 99°
2026-04-30 19:23 19.91781 -84.09641 38293 ft 494 kts 99°
2026-04-30 19:24 19.90205 -84.02549 38828 ft 492 kts 99°
2026-04-30 19:24 19.89418 -83.99011 38991 ft 494 kts 99°
2026-04-30 19:24 19.87836 -83.91899 39320 ft 495 kts 99°
2026-04-30 19:25 19.85446 -83.81193 39829 ft 497 kts 100°
2026-04-30 19:26 19.83844 -83.74037 40138 ft 498 kts 101°
2026-04-30 19:26 19.82236 -83.66869 40432 ft 499 kts 101°
2026-04-30 19:26 19.81429 -83.63279 40591 ft 500 kts 101°
2026-04-30 19:27 19.79812 -83.56091 40864 ft 501 kts 101°
2026-04-30 19:28 19.77357 -83.45204 40924 ft 511 kts 101°
2026-04-30 19:29 19.74017 -83.30453 40926 ft 519 kts 101°
2026-04-30 19:30 19.70626 -83.15542 40930 ft 520 kts 102°
2026-04-30 19:31 19.67219 -83.00615 40922 ft 521 kts 102°
2026-04-30 19:31 19.64658 -82.89433 40925 ft 520 kts 102°
2026-04-30 19:32 19.62946 -82.81983 40925 ft 520 kts 102°
2026-04-30 19:32 19.61234 -82.74540 40926 ft 520 kts 102°
2026-04-30 19:33 19.59515 -82.67080 40922 ft 520 kts 102°
2026-04-30 19:33 19.57793 -82.59629 40922 ft 520 kts 102°
2026-04-30 19:34 19.56067 -82.52174 40922 ft 520 kts 102°
2026-04-30 19:35 19.53476 -82.41008 40922 ft 520 kts 102°
2026-04-30 19:35 19.51740 -82.33545 40922 ft 521 kts 102°
2026-04-30 19:36 19.50000 -82.26079 40921 ft 522 kts 102°
2026-04-30 19:36 19.47384 -82.14883 40922 ft 522 kts 102°
2026-04-30 19:37 19.45636 -82.07422 40919 ft 522 kts 102°
2026-04-30 19:37 19.43881 -81.99953 40919 ft 522 kts 103°
2026-04-30 19:38 19.42116 -81.92496 40922 ft 522 kts 103°
2026-04-30 19:38 19.40347 -81.85040 40922 ft 522 kts 103°
2026-04-30 19:39 19.38576 -81.77583 40922 ft 522 kts 103°
2026-04-30 19:39 19.36803 -81.70133 40922 ft 522 kts 103°
2026-04-30 19:40 19.35028 -81.62683 40924 ft 523 kts 103°
2026-04-30 19:40 19.33242 -81.55202 40933 ft 524 kts 103°
2026-04-30 19:41 19.31463 -81.47768 40937 ft 524 kts 103°
2026-04-30 19:41 19.29669 -81.40289 40938 ft 524 kts 103°
2026-04-30 19:42 19.27907 -81.32801 40939 ft 524 kts 102°
2026-04-30 19:42 19.26277 -81.25285 40936 ft 525 kts 102°
2026-04-30 19:43 19.24656 -81.17731 40918 ft 527 kts 102°
2026-04-30 19:44 19.22178 -81.06387 40925 ft 528 kts 103°
2026-04-30 19:44 19.20509 -80.98816 40919 ft 528 kts 103°
2026-04-30 19:45 19.18836 -80.91247 40919 ft 528 kts 103°
2026-04-30 19:45 19.17158 -80.83662 40917 ft 531 kts 103°
2026-04-30 19:46 19.15757 -80.77340 40917 ft 532 kts 103°
2026-04-30 19:46 19.14064 -80.69721 40916 ft 532 kts 103°
2026-04-30 19:47 19.12370 -80.62105 40917 ft 532 kts 103°
2026-04-30 19:47 19.10673 -80.54495 40916 ft 532 kts 103°
2026-04-30 19:48 19.08983 -80.46934 40911 ft 524 kts 103°
2026-04-30 19:48 19.07312 -80.39469 40914 ft 521 kts 104°
2026-04-30 19:49 19.05642 -80.32023 40917 ft 520 kts 104°
2026-04-30 19:49 19.03132 -80.20864 40917 ft 520 kts 104°
2026-04-30 19:50 19.01455 -80.13421 40915 ft 521 kts 104°
2026-04-30 19:50 18.99780 -80.06007 40914 ft 522 kts 104°
2026-04-30 19:51 18.98078 -79.98493 40908 ft 523 kts 104°
2026-04-30 19:51 18.96395 -79.91072 40908 ft 523 kts 104°
2026-04-30 19:52 18.94698 -79.83605 40908 ft 523 kts 104°
2026-04-30 19:52 18.93019 -79.76225 40242 ft 507 kts 104°
2026-04-30 19:53 18.92196 -79.72608 39035 ft 509 kts 105°
2026-04-30 19:53 18.91360 -79.68946 37550 ft 516 kts 105°
2026-04-30 19:53 18.90514 -79.65247 36115 ft 520 kts 104°
2026-04-30 19:53 18.89662 -79.61526 34758 ft 523 kts 104°
2026-04-30 19:54 18.88807 -79.57790 33324 ft 525 kts 104°
2026-04-30 19:54 18.87951 -79.54059 31938 ft 523 kts 104°
2026-04-30 19:54 18.87098 -79.50347 30783 ft 515 kts 103°
2026-04-30 19:54 18.86262 -79.46706 29724 ft 506 kts 103°
2026-04-30 19:55 18.85440 -79.43131 28491 ft 497 kts 103°
2026-04-30 19:55 18.84631 -79.39611 27244 ft 490 kts 103°
2026-04-30 19:55 18.83833 -79.36142 26088 ft 482 kts 103°
2026-04-30 19:55 18.83049 -79.32739 25009 ft 473 kts 102°
2026-04-30 19:56 18.82278 -79.29397 23958 ft 464 kts 102°
2026-04-30 19:56 18.81521 -79.26116 22802 ft 456 kts 102°
2026-04-30 19:56 18.80776 -79.22888 21581 ft 448 kts 102°
2026-04-30 19:56 18.80044 -79.19721 20415 ft 441 kts 102°
2026-04-30 19:57 18.79325 -79.16612 19523 ft 428 kts 102°
2026-04-30 19:57 18.78635 -79.13642 19060 ft 405 kts 102°
2026-04-30 19:57 18.77983 -79.10830 18593 ft 386 kts 103°
2026-04-30 19:57 18.77354 -79.08118 18145 ft 380 kts 102°
2026-04-30 19:58 18.76727 -79.05412 17638 ft 378 kts 102°
2026-04-30 19:58 18.76106 -79.02734 17174 ft 374 kts 103°
2026-04-30 19:58 18.75491 -79.00083 16724 ft 370 kts 103°
2026-04-30 19:58 18.74882 -78.97461 16272 ft 367 kts 102°
2026-04-30 19:59 18.74275 -78.94856 15835 ft 365 kts 102°
2026-04-30 19:59 18.73669 -78.92258 15384 ft 364 kts 103°
2026-04-30 19:59 18.72470 -78.87116 14561 ft 358 kts 102°
2026-04-30 20:00 18.71875 -78.84571 14142 ft 356 kts 103°
2026-04-30 20:00 18.71282 -78.82037 13698 ft 356 kts 103°
2026-04-30 20:00 18.70693 -78.79516 13219 ft 352 kts 103°
2026-04-30 20:00 18.70110 -78.77021 12779 ft 348 kts 103°
2026-04-30 20:01 18.68960 -78.72104 11897 ft 343 kts 103°
2026-04-30 20:01 18.68391 -78.69674 11469 ft 340 kts 104°
2026-04-30 20:01 18.67827 -78.67267 11030 ft 336 kts 104°
2026-04-30 20:02 18.66735 -78.62609 10575 ft 314 kts 105°
2026-04-30 20:02 18.66184 -78.60429 10457 ft 301 kts 110°
2026-04-30 20:03 18.64549 -78.56578 10161 ft 279 kts 117°
2026-04-30 20:03 18.63702 -78.54754 9867 ft 277 kts 117°
2026-04-30 20:03 18.62832 -78.52905 9692 ft 291 kts 117°
2026-04-30 20:03 18.61927 -78.50992 9490 ft 290 kts 118°
2026-04-30 20:04 18.61022 -78.49085 8997 ft 291 kts 117°
2026-04-30 20:04 18.60118 -78.47187 8629 ft 289 kts 117°
2026-04-30 20:04 18.59219 -78.45298 8311 ft 288 kts 117°
2026-04-30 20:05 18.57431 -78.41546 7699 ft 285 kts 117°
2026-04-30 20:05 18.56546 -78.39689 7390 ft 283 kts 117°
2026-04-30 20:05 18.54789 -78.36007 6785 ft 279 kts 116°
2026-04-30 20:06 18.53921 -78.34188 6478 ft 277 kts 116°
2026-04-30 20:06 18.53060 -78.32384 6186 ft 276 kts 116°
2026-04-30 20:06 18.52197 -78.30578 5861 ft 274 kts 116°
2026-04-30 20:06 18.51344 -78.28790 5562 ft 273 kts 116°
2026-04-30 20:07 18.50491 -78.27005 5267 ft 271 kts 116°
2026-04-30 20:07 18.49650 -78.25246 4966 ft 267 kts 116°
2026-04-30 20:07 18.47998 -78.21790 4365 ft 261 kts 116°
2026-04-30 20:08 18.47178 -78.20077 4072 ft 262 kts 116°
2026-04-30 20:08 18.46361 -78.18370 3770 ft 260 kts 116°
2026-04-30 20:08 18.45547 -78.16670 3474 ft 259 kts 116°
2026-04-30 20:08 18.44739 -78.14980 3208 ft 255 kts 116°
2026-04-30 20:09 18.43966 -78.13367 3101 ft 239 kts 115°
2026-04-30 20:09 18.43277 -78.11830 3019 ft 226 kts 111°
2026-04-30 20:09 18.42965 -78.08795 2956 ft 198 kts 82°
2026-04-30 20:10 18.43920 -78.06217 2802 ft 184 kts 68°
2026-04-30 20:10 18.44441 -78.05009 2533 ft 176 kts 68°
2026-04-30 20:10 18.44923 -78.03878 2299 ft 164 kts 67°
2026-04-30 20:11 18.45821 -78.01819 1868 ft 147 kts 66°
2026-04-30 20:11 18.46224 -78.00882 1702 ft 134 kts 65°
2026-04-30 20:11 18.46593 -78.00027 1517 ft 123 kts 63°
2026-04-30 20:12 18.47285 -77.98434 1248 ft 122 kts 67°
2026-04-30 20:12 18.47634 -77.97627 1072 ft 118 kts 63°
2026-04-30 20:12 18.47970 -77.96858 916 ft 117 kts 65°
2026-04-30 20:13 18.48319 -77.96052 786 ft 122 kts 65°
2026-04-30 20:13 18.48667 -77.95248 651 ft 120 kts 63°
2026-04-30 20:13 18.49012 -77.94463 461 ft 118 kts 64°
2026-04-30 20:13 18.49354 -77.93697 280 ft 115 kts 66°
2026-04-30 20:14 18.49685 -77.92912 126 ft 119 kts 68°
2026-04-30 20:14 18.50027 -77.92114 26 ft 116 kts 66°
2026-04-30 20:14 18.50323 -77.91434 18 ft 77 kts 63°
2026-04-30 20:14 18.50421 -77.91209 19 ft 0 kts 65°
2026-04-30 20:15 18.50451 -77.91139 20 ft 27 kts 65°
2026-04-30 20:15 18.50520 -77.90936 20 ft 29 kts 83°
2026-04-30 20:15 18.50531 -77.90747 22 ft 19 kts 89°
2026-04-30 20:15 18.50505 -77.90681 18 ft 5 kts 165°
2026-04-30 20:16 18.50467 -77.90693 18 ft 7 kts 214°
2026-04-30 20:16 18.50438 -77.90743 19 ft 9 kts 243°
2026-04-30 20:16 18.50407 -77.90814 18 ft 12 kts 246°
2026-04-30 20:16 18.50368 -77.90904 18 ft 15 kts 245°
2026-04-30 20:17 18.50321 -77.91013 17 ft 18 kts 245°
2026-04-30 20:17 18.50266 -77.91141 18 ft 21 kts 246°
2026-04-30 20:17 18.50202 -77.91287 17 ft 23 kts 245°
2026-04-30 20:17 18.50131 -77.91451 17 ft 25 kts 246°
2026-04-30 20:18 18.50056 -77.91630 20 ft 28 kts 246°
2026-04-30 20:18 18.50000 -77.91765 17 ft 15 kts 246°
2026-04-30 20:18 18.49951 -77.91878 19 ft 18 kts 243°
2026-04-30 20:18 18.49896 -77.92004 20 ft 21 kts 246°
2026-04-30 20:19 18.49865 -77.92072 17 ft 4 kts 228°
2026-04-30 20:19 18.49846 -77.92080 21 ft 4 kts 187°
2026-04-30 20:19 18.49820 -77.92069 20 ft 0 kts 156°
2026-04-30 20:19 18.49804 -77.92061 18 ft 0 kts 156°